Погода в Хрусталях

Россия / Калужская область     54°55′28″N   36°28′45″E
темп.,
°C
ветер,
м/с
пор.,
м/с
влажн.,
%
обл.,
%
осадки,
мм/ч
давл.,
гПа
погр.,
м
28 сентября, вт
вт2800:00+8ссв3990100 0.1 1024687
03:00+8ссв3890100 0.4 1025564
06:00+7всв3891100 0.4 1027644
09:00+6всв4887100 0.4 1028694
12:00+7св3783100 0.1 1030774
15:00+7св3677100 0.1 1031797
18:00+7всв3671100 0.0 1032534
21:00+4в228117 0.0 103419
29 сентября, ср
ср2900:00+2всв11905 0.0 103510
03:00+2с11925 0.0 103610
06:00+1с22955 0.0 103621
09:00+5ссв237711 0.0 1036256
12:00+10св235443 0.0 1036894
15:00+12ссв235058 0.0 10341160
18:00+8с2270100 0.0 103413
21:00+5ссв228374 0.0 103513
30 сентября, чт
чт3000:00+4св119118 0.0 103510
03:00+4ссв119334 0.0 103610
06:00+6сз1185100 0.0 103615
09:00+8ссв117518 0.0 1036163
12:00+12вюв12574 0.0 10361079
15:00+13юв115228 0.0 10351307
18:00+9ююв00715 0.0 103410
21:00+7юз11800 0.0 103510
1 октября, пт
пт100:00+6зюз11860 0.0 103610
03:00+5зюз11890 0.0 103610
06:00+4зюз11910 0.0 103610
09:00+8юз12740 0.0 1036187
12:00+12юз23580 0.0 1035794
15:00+13юз23533 0.0 10341081
18:00+9юз22745 0.0 103410
21:00+7ююз22825 0.0 103412
2 октября, сб
сб200:00+6ююз22875 0.0 103416
03:00+5юз22905 0.0 103416
06:00+4ююз22925 0.0 103418
09:00+8ююз247557 0.0 1034211
12:00+12ююз345735 0.0 1033760
15:00+14ююз34512 0.0 10321096
18:00+10ю2271100 0.0 103221
21:00+8ю2678100 0.0 1032107